COSMOS 1556 (GLONASS)

Satellite information

Favourite Embed

Satellite Type and Status

PAYLOADIN ORBIT

Key statistics

Satellite COSMOS 1556 (GLONASS) at a glance.

Uptime

15132

Days in orbit

Revolutions

≈ 2.1

Per day

Orbit

MEO

Medium Earth Orbit

Inclination

66.5

Latest

Satellite identification and parameters

Extended collection of information and parameters for COSMOS 1556 (GLONASS).

Object identification

Identified? True

Debris? False

Object name: COSMOS 1556 (GLONASS)

International designator: 1984-047C

Object number (NORAD): 14979

Object ID (CCSDS): 14979

Country: COMMONWEALTH OF INDEPENDENT STATES (CIS)

Current information (Y/N): Y

RCS size: MEDIUM

Orbital parameters

Period: 676.335 minutes

Inclination: 66.5132 deg

SMA: 25523.171 km

Apoapsis: 19170.894 km

Periapsis: 19119.177 km

RAAN: 337.6388 deg

Eccentricy: 0.00101313

Argument of periapsis: 195.9815 deg

Mean anomaly: 163.6896 deg

Mean motion: 2.12912337 rev/day

Mean motion (dot): -0.00000056 rev/day2

B* drag term: 0.0 1/REarth

Two-line elements (TLE)

Creation date: Oct. 19, 2025, 2:20 a.m.

Reference frame: TEME

Reference center: EARTH

Epoch: Oct. 18, 2025, 12:12 p.m. UTC

TLE line 0: 0 COSMOS 1556 (GLONASS)

TLE line 1: 1 14979U 84047C 25291.50871709 -.00000056 00000-0 00000-0 0 9991

TLE line 2: 2 14979 66.5132 337.6388 0010131 195.9815 163.6896 2.12912337321945

Live tracking on map

Real-time ground track for satellite COSMOS 1556 (GLONASS).

In-orbit conjunctions

A list of the most updated potential collisions computed for object COSMOS 1556 (GLONASS).

Target Orbit TCA Probability of collision Miss distance Type
COSMOS 2375 (GLONASS) MEO 2024-09-29 15:37:42 TBA 1798.0 (m) PAYLOAD
SL-12 DEB MEO 2024-09-06 09:37:50 TBA 4752.0 (m) DEBRIS

Associated space launch

GLONASS navigation satellites

COSMOS 1556 (GLONASS) was lifted into orbit during the mission ‘Proton | Uragan 6 & 7’, on board a Proton space rocket.

The launch took place on May 19, 1984, 3:10 p.m. from 200/40.

For more information about the launch, click the button.

Launch to space Proton | Uragan 6 & 7
Proton | Uragan 6 & 7

Agency: N/A

Status: Launch Successful

Launch date: May 19, 1984, 3:10 p.m. UTC

Rocket: Proton

Launch pad: 200/40

Location: Baikonur Cosmodrome, Republic of Kazakhstan

...

Latest news about this satellite

There are no fresh news available about this satellite. Check back as we update our databases every day.


Newsletter sign-up

Weekly statistics, charts and insights to help you stay on top of the space industry.